Tracking 30986 objects as of 10-Jul-2025
HD Live streaming from Space Station
objects crossing your sky now

TVSAT 2

Track TVSAT 2 now!
TVSAT 2 is classified as:


NORAD ID: 20168
Int'l Code: 1989-062A
Perigee: 35,878.9 km
Apogee: 35,943.8 km
Inclination: 14.7 °
Period: 1,442.1 minutes
Semi major axis: 42282 km
RCS: 2.0976 m2 (large)
Launch date: August 8, 1989
Source: Germany (GER)
Launch site: FRENCH GUIANA (FRGUI)
Your satellite tracking list
Your tracking list is empty




NASA's NSSDC Master Catalog

Two Line Element Set (TLE):
1 20168U 89062A   25189.69918803 -.00000002  00000-0  00000-0 0  9994
2 20168  14.7015 358.3905 0007678 172.3786  21.0345  0.99853782131070
Source of the keplerian elements: AFSPC